Home   Weather   Hiroshima   Past weeks

Flag for Japan Past Weather in Hiroshima, Japan — Yesterday and Last 2 Weeks

63 °F

Mostly cloudy.

Feels Like: 63 °F
Forecast: 59 / 66 °F
Wind: 6 mph from North

Location: Iwakuni Marine Corps Air Station

Current Time: Oct 22, 2016 at 4:08:59 PM

Latest Report: Oct 22, 2016 at 2:55 PM

Visibility: N/A

Pressure: 29.85 "Hg

Humidity: 81%

Dew Point: 57 °F

Location of HiroshimaLocation

Past Weather in Hiroshima — Graph


Hiroshima Temperature Yesterday

Maximum temperature yesterday: 70 °F (at 11:55 AM)
Minimum temperature yesterday: 65 °F (at 10:55 PM)
Average temperature yesterday: 68 °F

High & Low Weather Summary for the Past Weeks

High79 °F (Oct 18, 10:55 AM)91% (Oct 17, 12:55 AM)30.31 "Hg (Oct 17, 12:55 AM)
Low55 °F (Oct 15, 4:55 AM)28% (Oct 15, 3:55 PM)29.73 "Hg (Oct 8, 11:55 PM)
Average68 °F62%30.06 "Hg
* Reported Oct 7 2:55 PM — Oct 22 2:55 PM, Hiroshima, Weather by CustomWeather, © 2016

Note: Actual official high and low records may vary slightly from our data, if they occured in-between our weather recording intervals... More about our weather records


Hiroshima Weather History for the Previous 24 Hours

Scroll right to see more
Time TempWeatherWind HumidityBarometerVisibility
2:55 PM
Sat, Oct 22
63 °FMostly cloudy.6 mph81%29.85 "HgN/A
1:55 PM63 °FLight rain. Mostly cloudy.8 mph81%29.86 "HgN/A
12:55 PM62 °FLight rain. Fog.9 mph83%29.88 "Hg6 mi
11:55 AM61 °FRain. Fog.8 mph87%29.92 "Hg1 mi
10:55 AM61 °FLight rain. Fog.6 mph83%29.96 "Hg1 mi
9:55 AM61 °FRain. Fog.6 mph83%29.98 "Hg4 mi
8:55 AM62 °FLight rain. Fog.6 mph78%30.00 "Hg4 mi
7:55 AM63 °FLight rain. Mostly cloudy.9 mph75%30.00 "HgN/A
6:55 AM65 °FLight rain. Overcast.8 mph66%29.99 "HgN/A
5:55 AM64 °FOvercast.9 mph68%29.99 "HgN/A
4:55 AM65 °FPassing clouds.9 mph66%30.00 "HgN/A
3:55 AM63 °FPassing clouds.5 mph68%30.01 "HgN/A
2:55 AM63 °FPassing clouds.5 mph68%30.01 "HgN/A
1:55 AM63 °FPartly cloudy.6 mph68%30.02 "HgN/A
12:55 AM63 °FPartly cloudy.5 mph65%30.02 "HgN/A
11:55 PM
Fri, Oct 21
65 °FPartly cloudy.8 mph63%30.03 "HgN/A
10:55 PM65 °FPassing clouds.8 mph66%30.05 "HgN/A
9:55 PM66 °FPassing clouds.7 mph61%30.06 "HgN/A
8:55 PM66 °FPassing clouds.8 mph59%30.06 "HgN/A
7:55 PM68 °FPartly cloudy.9 mph55%30.06 "HgN/A
6:55 PM68 °FMostly cloudy.9 mph57%30.07 "HgN/A
5:55 PM68 °FMostly cloudy.8 mph57%30.06 "HgN/A
4:55 PM68 °FMore clouds than sun.5 mph57%30.06 "HgN/A
Weather by CustomWeather, © 2016

See weather overviewHow to use our weather pages